Date String (YYYY-MM-DD hh:mm:ss) UTC,Instrument flags,Ambient pressure (hPa),Sample flow (lpm),Bypass flow (lpm),Sample temperature (°C),Ambient temperature (°C),ASC tube jacket temperature (°C),LED temperature (°C),Box temperature (°C),Sample RH (%),Span deviation,Mass concentration (μg/m³),Mass concentration (μg/m³),Mass concentration (μg/m³)
DateTimeUTC,F1_M11,P_M11,Q1_M11,Q2_M11,T1_M11,T2_M11,T3_M11,T4_M11,T5_M11,U1_M11,ZSPAN_M11,X0_M11,X2_M11,X1_M11
2022-04-10 13:00:00,,0815.2,4.99,0.00,23.1,22.6,00.0,32.0,25.0,19.1,0000.0,0011.69,0004.60,0002.99
2022-04-10 13:01:00,,0815.2,4.99,0.00,23.1,22.6,00.0,32.0,25.0,18.4,0000.0,0011.94,0004.59,0002.98
2022-04-10 13:02:00,,0815.2,5.00,0.00,23.1,22.5,00.0,32.0,25.0,18.1,0000.0,0012.53,0004.55,0002.94
2022-04-10 13:03:00,,0815.2,5.00,0.00,23.1,22.5,00.0,32.0,24.9,16.9,0000.0,0013.03,0004.48,0002.91
2022-04-10 13:04:00,,0815.2,5.01,0.00,23.1,22.4,00.0,32.0,24.9,16.6,0000.0,0013.02,0004.47,0002.90
2022-04-10 13:05:00,,0815.2,5.00,0.00,23.1,22.4,00.0,32.1,24.9,16.0,0000.0,0012.86,0004.50,0002.90
2022-04-10 13:06:00,,0815.3,5.01,0.00,23.1,22.4,00.0,32.1,24.9,15.8,0000.0,0012.84,0004.46,0002.88
2022-04-10 13:07:00,,0815.2,5.00,0.00,23.1,22.4,00.0,32.1,24.9,14.7,0000.0,0013.11,0004.44,0002.86
2022-04-10 13:08:00,,0815.2,5.00,0.00,23.1,22.4,00.0,32.1,24.9,13.7,0000.0,0013.79,0004.49,0002.87
2022-04-10 13:09:00,,0815.2,5.00,0.00,23.1,22.3,00.0,32.1,24.9,12.3,0000.0,0014.10,0004.54,0002.85
2022-04-10 13:10:00,,0815.2,5.00,0.00,23.0,22.3,00.0,32.0,24.8,10.9,0000.0,0013.58,0004.48,0002.83
2022-04-10 13:11:00,,0815.2,5.00,0.00,23.0,22.2,00.0,32.0,24.8,11.5,0000.0,0013.70,0004.50,0002.83
2022-04-10 13:12:00,,0815.2,5.00,0.00,23.0,22.2,00.0,32.0,24.7,10.7,0000.0,0013.71,0004.55,0002.84
2022-04-10 13:13:00,,0815.2,5.02,0.00,23.0,22.1,00.0,32.0,24.8,11.0,0000.0,0013.03,0004.61,0002.83
2022-04-10 13:14:00,,0815.2,5.00,0.00,23.0,22.1,00.0,32.0,24.7,11.3,0000.0,0012.61,0004.64,0002.85
2022-04-10 13:15:00,,0815.2,5.00,0.00,22.9,22.1,00.0,32.0,24.8,12.2,0000.0,0012.35,0004.65,0002.87
2022-04-10 13:16:00,,0815.2,5.00,0.00,22.9,22.1,00.0,32.0,24.7,11.6,0000.0,0012.46,0004.66,0002.86
2022-04-10 13:17:00,,0815.2,5.00,0.00,22.9,22.1,00.0,32.0,24.8,11.1,0000.0,0013.37,0004.65,0002.86
2022-04-10 13:18:00,,0815.2,5.01,0.00,22.9,22.1,00.0,32.0,24.8,11.1,0000.0,0013.26,0004.66,0002.85
2022-04-10 13:19:00,,0815.2,4.99,0.00,22.9,22.2,00.0,32.0,24.7,11.0,0000.0,0012.73,0004.64,0002.84
2022-04-10 13:20:00,,0815.3,5.00,0.00,22.9,22.2,00.0,32.0,24.7,11.4,0000.0,0012.97,0004.62,0002.83
2022-04-10 13:21:00,,0815.3,4.99,0.00,22.9,22.2,00.0,32.0,24.7,11.0,0000.0,0012.64,0004.61,0002.83
2022-04-10 13:22:00,,0815.3,4.99,0.00,22.9,22.2,00.0,31.9,24.7,10.6,0000.0,0012.22,0004.62,0002.84
2022-04-10 13:23:00,,0815.3,5.00,0.00,22.9,22.2,00.0,31.9,24.7,10.8,0000.0,0012.18,0004.62,0002.82
2022-04-10 13:24:00,,0815.3,5.00,0.00,22.9,22.2,00.0,31.9,24.8,11.2,0000.0,0012.18,0004.58,0002.80
2022-04-10 13:25:00,,0815.3,5.01,0.00,22.9,22.3,00.0,31.9,24.8,11.2,0000.0,0012.70,0004.53,0002.78
2022-04-10 13:26:00,,0815.3,5.01,0.00,23.0,22.3,00.0,31.9,24.8,11.0,0000.0,0012.94,0004.51,0002.77
2022-04-10 13:27:00,,0815.3,5.00,0.00,23.0,22.4,00.0,32.0,24.9,11.6,0000.0,0012.85,0004.51,0002.76
2022-04-10 13:28:00,,0815.3,5.00,0.00,23.0,22.4,00.0,32.0,24.9,11.2,0000.0,0011.82,0004.50,0002.76
2022-04-10 13:29:00,,0815.3,5.01,0.00,23.0,22.5,00.0,32.0,25.0,11.1,0000.0,0011.69,0004.49,0002.76
2022-04-10 13:30:00,,0815.3,5.00,0.00,23.1,22.5,00.0,32.0,25.0,10.4,0000.0,0011.57,0004.49,0002.76
2022-04-10 13:31:00,,0815.3,5.01,0.00,23.1,22.5,00.0,32.0,25.0,11.0,0000.0,0010.88,0004.47,0002.76
2022-04-10 13:32:00,,0815.3,5.01,0.00,23.1,22.6,00.0,32.0,25.0,09.7,0000.0,0010.85,0004.47,0002.76
2022-04-10 13:33:00,,0815.3,4.98,0.00,23.1,22.5,00.0,32.0,25.0,09.3,0000.0,0010.66,0004.40,0002.75
2022-04-10 13:34:00,,0815.2,4.99,0.00,23.1,22.5,00.0,32.0,25.0,08.9,0000.0,0011.14,0004.41,0002.78
2022-04-10 13:35:00,,0815.3,5.00,0.00,23.1,22.5,00.0,32.0,25.0,09.0,0000.0,0011.92,0004.45,0002.82
2022-04-10 13:36:00,,0815.3,5.01,0.00,23.2,22.6,00.0,32.0,25.0,09.3,0000.0,0012.87,0004.46,0002.83
2022-04-10 13:37:00,,0815.3,5.00,0.00,23.2,22.6,00.0,32.1,25.1,09.5,0000.0,0012.52,0004.42,0002.83
2022-04-10 13:38:00,,0815.3,4.99,0.00,23.2,22.6,00.0,32.1,25.1,10.3,0000.0,0012.06,0004.43,0002.86
2022-04-10 13:39:00,,0815.4,5.00,0.00,23.3,22.6,00.0,32.1,25.1,09.9,0000.0,0012.13,0004.42,0002.87
2022-04-10 13:40:00,,0815.3,5.00,0.00,23.3,22.6,00.0,32.1,25.1,09.7,0000.0,0012.17,0004.44,0002.90
2022-04-10 13:41:00,,0815.4,5.00,0.00,23.3,22.6,00.0,32.1,25.1,09.2,0000.0,0012.53,0004.53,0002.94
2022-04-10 13:42:00,,0815.4,5.00,0.00,23.3,22.6,00.0,32.1,25.1,09.4,0000.0,0012.99,0004.56,0002.94
2022-04-10 13:43:00,,0815.3,4.99,0.00,23.2,22.6,00.0,32.1,25.1,08.8,0000.0,0014.43,0004.58,0002.97
2022-04-10 13:44:00,,0815.4,5.01,0.00,23.2,22.6,00.0,32.1,25.1,08.9,0000.0,0014.88,0004.58,0002.97
2022-04-10 13:45:00,,0815.4,5.00,0.00,23.2,22.5,00.0,32.1,25.0,10.0,0000.0,0014.86,0004.58,0002.96
2022-04-10 13:46:00,,0815.4,4.99,0.00,23.2,22.5,00.0,32.2,25.0,09.7,0000.0,0014.54,0004.55,0002.96
2022-04-10 13:47:00,,0815.3,5.00,0.00,23.2,22.5,00.0,32.2,25.0,10.0,0000.0,0013.14,0004.50,0002.96
2022-04-10 13:48:00,,0815.3,5.00,0.00,23.3,22.6,00.0,32.2,25.1,09.4,0000.0,0013.45,0004.56,0002.98
2022-04-10 13:49:00,,0815.3,5.00,0.00,23.3,22.6,00.0,32.2,25.1,09.0,0000.0,0013.59,0004.55,0002.97
2022-04-10 13:50:00,,0815.3,4.99,0.00,23.3,22.6,00.0,32.2,25.1,09.5,0000.0,0013.62,0004.56,0002.99
2022-04-10 13:51:00,,0815.3,5.00,0.00,23.3,22.6,00.0,32.2,25.1,09.5,0000.0,0013.48,0004.52,0002.97
2022-04-10 13:52:00,,0815.3,5.01,0.00,23.3,22.6,00.0,32.2,25.1,09.5,0000.0,0013.56,0004.43,0002.96
2022-04-10 13:53:00,,0815.3,5.00,0.00,23.3,22.5,00.0,32.2,25.1,09.4,0000.0,0013.50,0004.37,0002.96
2022-04-10 13:54:00,,0815.3,5.00,0.00,23.2,22.5,00.0,32.2,25.0,09.1,0000.0,0012.22,0004.33,0002.94
2022-04-10 13:55:00,,0815.4,4.99,0.00,23.2,22.5,00.0,32.2,25.0,09.0,0000.0,0011.98,0004.37,0002.97
2022-04-10 13:56:00,,0815.3,4.99,0.00,23.2,22.4,00.0,32.2,25.0,09.5,0000.0,0011.79,0004.37,0002.97
2022-04-10 13:57:00,,0815.4,5.00,0.00,23.2,22.3,00.0,32.2,24.9,09.9,0000.0,0011.86,0004.41,0002.96
2022-04-10 13:58:00,,0815.4,5.00,0.00,23.1,22.2,00.0,32.2,24.9,09.4,0000.0,0011.75,0004.47,0002.97
2022-04-10 13:59:00,,0815.7,5.01,0.00,23.1,22.1,00.0,32.2,24.8,09.4,0000.0,0011.56,0004.46,0002.97
